#timestamp,LO_Frequency,Hit,StdDev 
1663455615.6,286046998.6,N
1663455635.4,286046999.3,N
1663455655.3,286046999.1,N
1663455675.1,286046999.6,N
1663455695.9,286046996.8,Y
1663455715.7,286046999.5,P
1663455735.5,286046996.7,P
1663455755.4,286046997.1,N
1663455775.2,286046997.0,N
1663455795.1,286046996.5,N
1663455796.0,286046996.5,N
1663455815.8,286046999.0,N
1663455835.6,286046999.4,N
1663455855.5,286046996.5,N
1663455875.3,286046996.5,N
1663455895.1,286046999.3,N
1663455915.9,286046996.6,N
1663455935.7,286046996.7,N
1663455955.6,286046999.1,N
1663455975.4,286046997.3,N
1663455995.2,286046997.7,N
1663456015.1,286046997.7,N
1663456016.0,286046997.7,N
1663456035.8,286046997.3,N
1663456055.6,286046997.7,N
1663456075.5,286046995.0,Y
1663456095.3,286046998.9,P
1663456115.2,286047001.2,N
1663456135.0,286047001.0,N
1663456135.9,286047001.0,N
1663456155.7,286047001.2,N
1663456175.6,286046999.8,N
1663456195.4,286047000.2,N
1663456215.3,286047000.4,N
1663456235.1,286046998.1,N
1663456236.0,286046998.1,N
1663456255.8,286046998.5,N
1663456275.7,286046999.6,N
1663456295.5,286047000.8,N
1663456315.4,286046996.5,N
1663456335.2,286046997.6,N
1663456355.0,286046997.7,N
1663456355.9,286046997.7,N
1663456375.8,286046996.5,N
1663456395.6,286046996.8,N
1663456415.4,286046997.4,N
1663456435.3,286046994.9,Y
1663456455.1,286046996.6,P
1663456475.9,286046999.6,N
1663456495.7,286046999.2,N
1663456515.5,286046999.6,N
1663456535.4,286046999.6,N
1663456555.2,286046999.6,N
1663456575.0,286046999.6,N
1663456575.9,286046999.6,N
1663456595.8,286046997.3,N
1663456615.6,286046996.5,Y
1663456635.5,286046998.4,P
1663456655.3,286046998.5,P
1663456675.1,286047001.0,P
1663456695.9,286047000.8,N
1663456715.7,286047000.2,N
1663456735.6,286046998.1,N
1663456755.4,286046998.6,N
1663456775.2,286046998.5,N
1663456795.1,286046998.5,N
1663456796.0,286046998.5,N
1663456815.8,286046998.2,N
1663456835.6,286046998.1,N
1663456855.5,286046999.4,N
1663456875.3,286046999.5,N
1663456895.2,286046999.4,N
1663456915.9,286046999.6,N
1663456935.7,286046996.9,Y
1663456955.6,286047001.0,P
1663456975.4,286047000.5,N
1663456995.3,286046998.5,N
1663457015.1,286046998.5,N
1663457016.0,286046998.5,N
1663457035.8,286046998.3,N
1663457055.7,286046998.1,N
1663457075.5,286047001.1,N
1663457095.4,286047000.0,N
1663457115.2,286047000.9,N
1663457135.0,286046999.8,N
1663457135.9,286046999.8,N
1663457155.8,286047000.5,N
1663457175.6,286047002.7,N
1663457195.4,286047002.8,N
1663457215.3,286047000.1,N
1663457235.1,286046999.7,N
1663457255.9,286047000.3,N
1663457275.7,286047000.9,N
1663457295.5,286047000.9,N
1663457315.4,286047000.3,N
1663457335.2,286047000.3,N
1663457355.1,286046999.8,N
1663457356.0,286046999.8,N
1663457375.8,286047000.6,N
1663457395.6,286047001.2,N
1663457415.5,286046998.4,N
1663457435.3,286046998.5,N
1663457455.1,286047000.8,N
1663457475.9,286047000.0,N
1663457495.7,286047002.3,N
1663457515.6,286047002.4,N
1663457535.4,286047001.0,N
1663457555.2,286046998.1,N
1663457575.1,286046999.8,N
1663457576.0,286046999.8,N
1663457595.8,286046999.7,N
1663457615.7,286047001.9,N
1663457635.5,286047001.9,N
1663457655.3,286047001.3,N
1663457675.2,286047001.8,N
1663457695.0,286047002.1,N
1663457695.9,286047002.1,N
1663457715.7,286047002.1,N
1663457735.6,286047001.8,N
1663457755.4,286047004.2,Y
1663457775.3,286047001.7,P
1663457795.1,286047004.0,P
1663457796.0,286047004.0,N
1663457815.8,286047004.4,N
1663457835.7,286047001.8,N
1663457855.5,286047001.8,N
1663457875.3,286047002.3,N
1663457895.2,286047002.6,N
1663457915.0,286047001.5,N
1663457915.9,286047001.5,N
1663457935.8,286047002.0,N
1663457955.6,286047002.1,N
1663457975.4,286047002.1,N
1663457995.3,286047002.2,N
1663458015.1,286047002.7,N
1663458035.8,286047002.5,N
1663458055.7,286047002.0,N
1663458075.5,286047000.2,N
1663458095.4,286047002.8,N
1663458115.2,286047001.3,N
1663458135.0,286047002.0,N
1663458135.9,286047002.0,N
1663458155.8,286047002.2,N
1663458175.6,286047001.5,N
1663458195.5,286047004.4,Y
1663458215.3,286047000.2,P
1663458235.1,286046999.8,N
1663458255.9,286047000.1,N
1663458275.7,286046999.7,N
1663458295.5,286047001.9,N
1663458315.4,286047002.0,N
1663458335.2,286047002.1,N
1663458355.1,286047001.4,N
1663458356.0,286047001.4,N
1663458375.8,286047004.3,Y
1663458395.6,286047000.1,P
1663458415.5,286047000.2,N
1663458435.3,286047000.6,N
1663458455.1,286046999.9,N
1663458475.9,286047000.5,N
1663458495.7,286046998.8,Y
1663458515.6,286047000.5,P
1663458535.4,286047002.4,P
1663458555.2,286047002.1,N
1663458575.1,286047002.3,N
1663458576.0,286047002.3,N
1663458595.8,286047002.0,N
1663458615.7,286047001.9,N
1663458635.5,286047000.0,N
1663458655.3,286047002.0,N
1663458675.2,286047001.9,N
1663458695.0,286047001.8,N
1663458695.9,286047001.8,N
1663458715.8,286047000.3,N
1663458735.6,286046999.5,N
1663458755.4,286046998.3,N
1663458775.3,286046998.2,N
1663458795.1,286047000.4,N
1663458815.9,286047002.7,N
1663458835.7,286047001.5,N
1663458855.5,286047004.4,Y
1663458875.4,286047003.8,P
1663458895.2,286047006.0,P
1663458915.0,286047005.8,N
1663458915.9,286047005.8,N
1663458935.8,286047005.8,Y
1663458955.6,286047000.2,P
1663458975.5,286046999.4,N
1663458995.3,286046999.5,N
1663459015.1,286046999.1,N
1663459035.9,286046998.8,N
1663459055.7,286046999.5,N
1663459075.6,286046999.5,N
1663459095.4,286046994.9,N
1663459115.2,286046997.9,N
1663459135.1,286046997.4,N
1663459136.0,286046997.4,N
1663459155.8,286046999.3,N
1663459175.6,286046997.1,N
1663459195.5,286046999.2,N
